Year,Month,Day,Hour,Minute,Value (Times are PST for temperature in C)
2013,03,12,12,15,9.50
2013,03,12,12,16,9.50
2013,03,12,12,17,9.50
2013,03,12,12,18,9.60
2013,03,12,12,19,9.60
2013,03,12,12,20,9.60
2013,03,12,12,21,9.60
2013,03,12,12,22,9.60
2013,03,12,12,23,9.60
2013,03,12,12,24,9.60
2013,03,12,12,25,9.60
2013,03,12,12,26,9.60
2013,03,12,12,27,9.60
2013,03,12,12,28,9.60
2013,03,12,12,29,9.60
2013,03,12,12,30,9.60
2013,03,12,12,31,9.60
2013,03,12,12,32,9.60
2013,03,12,12,33,9.60
2013,03,12,12,34,9.70
2013,03,12,12,35,9.70
2013,03,12,12,36,9.70
2013,03,12,12,37,9.70
2013,03,12,12,38,9.70
2013,03,12,12,39,9.70
2013,03,12,12,40,9.70
2013,03,12,12,41,9.80
2013,03,12,12,42,9.80
2013,03,12,12,43,9.80
2013,03,12,12,44,9.70
2013,03,12,12,45,9.70
2013,03,12,12,46,9.80
2013,03,12,12,47,9.80
2013,03,12,12,48,9.80
2013,03,12,12,49,9.90
2013,03,12,12,50,9.90
2013,03,12,12,51,9.90
2013,03,12,12,52,9.90
2013,03,12,12,53,9.90
2013,03,12,12,54,9.90
2013,03,12,12,55,10.00
2013,03,12,12,56,10.10
2013,03,12,12,57,10.10
2013,03,12,12,58,10.20
2013,03,12,12,59,10.20
2013,03,12,13,00,10.30
2013,03,12,13,01,10.40
2013,03,12,13,02,10.40
2013,03,12,13,03,10.40
2013,03,12,13,04,10.50
2013,03,12,13,05,10.50
2013,03,12,13,06,10.60
2013,03,12,13,07,10.60
2013,03,12,13,08,10.70
2013,03,12,13,09,10.80
2013,03,12,13,10,10.80
2013,03,12,13,11,10.80
2013,03,12,13,12,10.90
2013,03,12,13,13,10.90
2013,03,12,13,14,10.90
2013,03,12,13,15,11.00
2013,03,12,13,16,11.00
2013,03,12,13,17,11.00
2013,03,12,13,18,11.10
2013,03,12,13,19,11.10
2013,03,12,13,20,11.10
2013,03,12,13,21,11.10
2013,03,12,13,22,11.20
2013,03,12,13,23,11.20
2013,03,12,13,24,11.20
2013,03,12,13,25,11.10
2013,03,12,13,26,11.10
2013,03,12,13,27,11.10
2013,03,12,13,28,11.10
2013,03,12,13,29,11.10
2013,03,12,13,30,11.10
2013,03,12,13,31,11.10
2013,03,12,13,32,11.10
2013,03,12,13,33,11.10
2013,03,12,13,34,11.10
2013,03,12,13,35,11.10
2013,03,12,13,36,11.00
2013,03,12,13,37,11.00
2013,03,12,13,38,11.00
2013,03,12,13,39,11.00
2013,03,12,13,40,11.00
2013,03,12,13,41,11.00
2013,03,12,13,42,11.00
2013,03,12,13,43,11.00
2013,03,12,13,44,10.90
2013,03,12,13,45,10.90
2013,03,12,13,46,10.90
2013,03,12,13,47,10.90
2013,03,12,13,48,10.90
2013,03,12,13,49,10.90
2013,03,12,13,50,10.90
2013,03,12,13,51,10.90
2013,03,12,13,52,10.80
2013,03,12,13,53,10.80
2013,03,12,13,54,10.90
2013,03,12,13,55,10.90
2013,03,12,13,56,10.90
2013,03,12,13,57,10.90
2013,03,12,13,58,10.90
2013,03,12,13,59,10.90
2013,03,12,14,00,10.90
2013,03,12,14,01,10.90
2013,03,12,14,02,10.90
2013,03,12,14,03,11.00
2013,03,12,14,04,11.00
2013,03,12,14,05,11.00
2013,03,12,14,06,11.00
2013,03,12,14,07,11.00
2013,03,12,14,08,11.00
2013,03,12,14,09,10.90
2013,03,12,14,10,10.90
2013,03,12,14,11,10.90
2013,03,12,14,12,10.90
2013,03,12,14,13,10.90
2013,03,12,14,14,10.90
2013,03,12,14,15,10.90
2013,03,12,14,16,10.90
2013,03,12,14,17,11.00
2013,03,12,14,18,10.90
2013,03,12,14,19,11.00
2013,03,12,14,20,11.00
2013,03,12,14,21,11.00
2013,03,12,14,22,11.00
2013,03,12,14,23,10.90
2013,03,12,14,24,10.90
2013,03,12,14,25,11.00
2013,03,12,14,26,11.00
2013,03,12,14,27,11.10
2013,03,12,14,28,11.10
2013,03,12,14,29,11.00
2013,03,12,14,30,11.00
2013,03,12,14,31,10.90
2013,03,12,14,32,10.80
2013,03,12,14,33,10.80
2013,03,12,14,34,10.90
2013,03,12,14,35,11.00
2013,03,12,14,36,11.00
2013,03,12,14,37,11.00
2013,03,12,14,38,11.00
2013,03,12,14,39,11.00
2013,03,12,14,40,11.00
2013,03,12,14,41,11.00
2013,03,12,14,42,11.10
2013,03,12,14,43,11.10
2013,03,12,14,44,11.20
2013,03,12,14,45,11.20
2013,03,12,14,46,11.20
2013,03,12,14,47,11.10
2013,03,12,14,48,11.10
2013,03,12,14,49,11.10
2013,03,12,14,50,11.10
2013,03,12,14,51,11.10
2013,03,12,14,52,11.10
2013,03,12,14,53,11.10
2013,03,12,14,54,11.10
2013,03,12,14,55,11.20
2013,03,12,14,56,11.30
2013,03,12,14,57,11.40
2013,03,12,14,58,11.40
2013,03,12,14,59,11.40
2013,03,12,15,00,11.40
2013,03,12,15,01,11.50
2013,03,12,15,02,11.40
2013,03,12,15,03,11.40
2013,03,12,15,04,11.30
2013,03,12,15,05,11.20
2013,03,12,15,06,11.20
2013,03,12,15,07,11.20
2013,03,12,15,08,11.10
2013,03,12,15,09,11.10
2013,03,12,15,10,11.00
2013,03,12,15,11,11.00
2013,03,12,15,12,10.90
2013,03,12,15,13,11.00
2013,03,12,15,14,10.90
2013,03,12,15,15,11.00
2013,03,12,15,16,11.00
2013,03,12,15,17,11.00
2013,03,12,15,18,11.00
2013,03,12,15,19,11.00
2013,03,12,15,20,11.00
2013,03,12,15,21,11.00
2013,03,12,15,22,11.10
2013,03,12,15,23,11.10
2013,03,12,15,24,11.10
2013,03,12,15,25,11.00
2013,03,12,15,26,10.90
2013,03,12,15,27,10.90
2013,03,12,15,28,10.80
2013,03,12,15,29,10.80
2013,03,12,15,30,10.80
2013,03,12,15,31,10.80
2013,03,12,15,32,10.80
2013,03,12,15,33,10.80
2013,03,12,15,34,10.80
2013,03,12,15,35,10.80
2013,03,12,15,36,10.70
2013,03,12,15,37,10.70
2013,03,12,15,38,10.70
2013,03,12,15,39,10.70
2013,03,12,15,40,10.70
2013,03,12,15,41,10.70
2013,03,12,15,42,10.70
2013,03,12,15,43,10.70
2013,03,12,15,44,10.80
2013,03,12,15,45,10.80
2013,03,12,15,46,10.80
2013,03,12,15,47,10.90
2013,03,12,15,48,10.90
2013,03,12,15,49,10.90
2013,03,12,15,50,10.90
2013,03,12,15,51,10.90
2013,03,12,15,52,10.90
2013,03,12,15,53,10.80
2013,03,12,15,54,10.80
2013,03,12,15,55,10.80
2013,03,12,15,56,10.80
2013,03,12,15,57,10.80
2013,03,12,15,58,10.80
2013,03,12,15,59,10.80
2013,03,12,16,00,10.90
2013,03,12,16,01,11.10
2013,03,12,16,02,11.10
2013,03,12,16,03,11.10
2013,03,12,16,04,11.20
2013,03,12,16,05,11.20
2013,03,12,16,06,11.20
2013,03,12,16,07,11.30
2013,03,12,16,08,11.40
2013,03,12,16,09,11.40
2013,03,12,16,10,11.50
2013,03,12,16,11,11.60
2013,03,12,16,12,11.60
2013,03,12,16,13,11.60
2013,03,12,16,14,11.60
2013,03,12,16,15,11.60
2013,03,12,16,16,11.60
2013,03,12,16,17,11.60
2013,03,12,16,18,11.70
2013,03,12,16,19,11.70
2013,03,12,16,20,11.70
2013,03,12,16,21,11.70
2013,03,12,16,22,11.60
2013,03,12,16,23,11.60
2013,03,12,16,24,11.60
2013,03,12,16,25,11.70
2013,03,12,16,26,11.70
2013,03,12,16,27,11.70
2013,03,12,16,28,11.70
2013,03,12,16,29,11.70
2013,03,12,16,30,11.70
2013,03,12,16,31,11.70
2013,03,12,16,32,11.70
2013,03,12,16,33,11.70
2013,03,12,16,34,11.70
2013,03,12,16,35,11.80
2013,03,12,16,36,11.80
2013,03,12,16,37,11.70
2013,03,12,16,38,11.70
2013,03,12,16,39,11.60
2013,03,12,16,40,11.60
2013,03,12,16,41,11.60
2013,03,12,16,42,11.50
2013,03,12,16,43,11.50
2013,03,12,16,44,11.50
2013,03,12,16,45,11.50
2013,03,12,16,46,11.50
2013,03,12,16,47,11.50
2013,03,12,16,48,11.50
2013,03,12,16,49,11.50
2013,03,12,16,50,11.50
2013,03,12,16,51,11.50
2013,03,12,16,52,11.60
2013,03,12,16,53,11.60
2013,03,12,16,54,11.60
2013,03,12,16,55,11.60
2013,03,12,16,56,11.60
2013,03,12,16,57,11.70
2013,03,12,16,58,11.70
2013,03,12,16,59,11.70
2013,03,12,17,00,11.80
2013,03,12,17,01,11.80
2013,03,12,17,02,11.80
2013,03,12,17,03,11.90
2013,03,12,17,04,11.90
2013,03,12,17,05,11.90
2013,03,12,17,06,11.90
2013,03,12,17,07,11.90
2013,03,12,17,08,11.90
2013,03,12,17,09,11.90
2013,03,12,17,10,11.90
2013,03,12,17,11,11.90
2013,03,12,17,12,11.90
2013,03,12,17,13,11.90
2013,03,12,17,14,11.90
2013,03,12,17,15,11.80
2013,03,12,17,16,11.90
2013,03,12,17,17,11.90
2013,03,12,17,18,11.90
2013,03,12,17,19,11.80
2013,03,12,17,20,11.80
2013,03,12,17,21,11.80
2013,03,12,17,22,11.80
2013,03,12,17,23,11.80
2013,03,12,17,24,11.80
2013,03,12,17,25,11.80
2013,03,12,17,26,11.80
2013,03,12,17,27,11.80
2013,03,12,17,28,11.80
2013,03,12,17,29,11.80
2013,03,12,17,30,11.80
2013,03,12,17,31,11.80
2013,03,12,17,32,11.80
2013,03,12,17,33,11.80
2013,03,12,17,34,11.80
2013,03,12,17,35,11.80
2013,03,12,17,36,11.70
2013,03,12,17,37,11.60
2013,03,12,17,38,11.60
2013,03,12,17,39,11.60
2013,03,12,17,40,11.50
2013,03,12,17,41,11.50
2013,03,12,17,42,11.50
2013,03,12,17,43,11.40
2013,03,12,17,44,11.40
2013,03,12,17,45,11.40
2013,03,12,17,46,11.40
2013,03,12,17,47,11.40
2013,03,12,17,48,11.40
2013,03,12,17,49,11.40
2013,03,12,17,50,11.40
2013,03,12,17,51,11.40
2013,03,12,17,52,11.40
2013,03,12,17,53,11.40
2013,03,12,17,54,11.40
2013,03,12,17,55,11.40
